TimeEST,TemperatureF,Dew PointF,Humidity,Sea Level PressureIn,VisibilityMPH,Wind Direction,Wind SpeedMPH,Gust SpeedMPH,PrecipitationIn,Events,Conditions,WindDirDegrees,DateUTC
12:53 AM,37.0,15.1,41,30.17,10.0,Calm,Calm,-,N/A,,Clear,0,2014-02-01 05:53:00
1:53 AM,37.0,16.0,42,30.18,10.0,Calm,Calm,-,N/A,,Clear,0,2014-02-01 06:53:00
2:53 AM,32.0,18.0,56,30.18,10.0,Calm,Calm,-,N/A,,Clear,0,2014-02-01 07:53:00
3:53 AM,37.0,14.0,39,30.18,10.0,North,5.8,-,N/A,,Clear,10,2014-02-01 08:53:00
4:53 AM,32.0,15.1,50,30.17,10.0,North,3.5,-,N/A,,Clear,10,2014-02-01 09:53:00
5:53 AM,36.0,15.1,43,30.18,10.0,NNE,3.5,-,N/A,,Clear,20,2014-02-01 10:53:00
6:53 AM,37.0,15.1,41,30.20,10.0,North,5.8,-,N/A,,Clear,10,2014-02-01 11:53:00
7:53 AM,37.9,17.1,43,30.21,10.0,North,4.6,-,N/A,,Mostly Cloudy,360,2014-02-01 12:53:00
8:53 AM,41.0,18.0,40,30.22,10.0,NNE,4.6,-,N/A,,Overcast,20,2014-02-01 13:53:00
9:53 AM,45.0,19.0,36,30.22,10.0,NNE,6.9,-,N/A,,Overcast,20,2014-02-01 14:53:00
10:53 AM,46.9,19.0,33,30.23,10.0,NNE,4.6,-,N/A,,Overcast,20,2014-02-01 15:53:00
11:53 AM,50.0,19.9,31,30.21,10.0,North,5.8,-,N/A,,Overcast,350,2014-02-01 16:53:00
12:53 PM,54.0,18.0,24,30.18,10.0,Calm,Calm,-,N/A,,Overcast,0,2014-02-01 17:53:00
1:53 PM,55.9,17.1,22,30.14,10.0,Variable,3.5,-,N/A,,Overcast,0,2014-02-01 18:53:00
2:53 PM,55.9,14.0,19,30.13,10.0,South,3.5,-,N/A,,Overcast,180,2014-02-01 19:53:00
3:40 PM,55.4,19.4,25,30.12,10.0,Variable,3.5,-,N/A,,Overcast,0,2014-02-01 20:40:00
3:53 PM,55.9,24.1,29,30.13,10.0,NW,3.5,-,N/A,,Overcast,310,2014-02-01 20:53:00
4:53 PM,54.0,30.9,41,30.15,10.0,SSW,5.8,-,N/A,,Overcast,200,2014-02-01 21:53:00
5:53 PM,52.0,36.0,54,30.14,10.0,SSE,4.6,-,N/A,,Overcast,150,2014-02-01 22:53:00
6:53 PM,51.1,37.9,61,30.14,10.0,South,4.6,-,N/A,,Overcast,170,2014-02-01 23:53:00
7:53 PM,51.1,37.0,59,30.14,10.0,SSW,3.5,-,N/A,,Overcast,210,2014-02-02 00:53:00
8:53 PM,50.0,37.9,63,30.14,10.0,SW,3.5,-,N/A,,Overcast,220,2014-02-02 01:53:00
9:53 PM,50.0,39.0,66,30.14,10.0,SSW,4.6,-,N/A,,Overcast,210,2014-02-02 02:53:00
10:36 PM,48.2,39.2,71,30.13,10.0,SW,5.8,-,N/A,,Scattered Clouds,220,2014-02-02 03:36:00
10:53 PM,46.9,39.0,74,30.14,10.0,SW,4.6,-,N/A,,Clear,230,2014-02-02 03:53:00
11:53 PM,45.0,37.9,76,30.14,10.0,SW,4.6,-,N/A,,Clear,230,2014-02-02 04:53:00